Regional Weather Roundup
Issued by NWS State College, PA

Home | Current Version | Previous Version | Text Only | Print | Product List | Glossary On
Versions: 1 2 3 4 5 6 7 8 9 10 11 12 13 14 15 16 17 18 19 20 21 22 23 24 25 26 27 28 29 30 31 32 33 34 35 36 37 38 39 40 41 42 43 44 45 46 47 48 49 50
000
ASUS41 KCTP 232010
RWRCTP
PHLRWRCTP ALL

REGIONAL WEATHER ROUNDUP
NATIONAL WEATHER SERVICE STATE COLLEGE PA
400 PM EDT SAT SEP 23 2017

Note: "fair" indicates few or no clouds below 12,000 feet with no
significant weather and/or obstructions to visibility.

* = STATION THAT DOES NOT REPORT PRECIPITATION /E.G. RAIN...SNOW...ETC/
    THUNDER OR FOG.

PAZ002>004-007>009-013>016-020>023-029>032-232100-
WESTERN PENNSYLVANIA

CITY           SKY/WX    TMP DP  RH WIND       PRES   REMARKS
ERIE           SUNNY     82  53  36 CALM      30.14F
MEADVILLE      SUNNY     88  59  37 N10G18    30.16F
FRANKLIN*      SUNNY     84  59  42 N8        30.16F
NEW CASTLE     FAIR      88  56  33 N6        30.14F
BEAVER COUNTY  NOT AVBL
BUTLER*        SUNNY     86  56  35 VRB6      30.14F
PITTSBURGH INT MOSUNNY   89  51  27 VRB5      30.12F
PITTSBURGH     SUNNY     84  50  30 NE5       30.12F
INDIANA*       SUNNY     84  52  32 CALM      30.16F
LATROBE        SUNNY     82  55  39 VRB5      30.13F
WASHINGTON CO* SUNNY     86  52  30 N8        30.13S
$$

PAZ004>006-010>012-017>019-024>028-033>037-041-042-045-046-049>053-232100-
CENTRAL PENNSYLVANIA

CITY           SKY/WX    TMP DP  RH WIND       PRES   REMARKS
BRADFORD       SUNNY     83  61  47 N7        30.18F
DUBOIS         SUNNY     83  54  36 N6        30.15F
CLEARFIELD     SUNNY     87  56  34 NE6       30.14F
JOHNSTOWN      SUNNY     83  50  31 NE8       30.17F
ALTOONA        SUNNY     85  54  34 E5        30.13F
STATE COLLEGE  SUNNY     84  55  37 CALM      30.11F
WILLIAMSPORT   SUNNY     89  59  36 SW8       30.05F
SELINSGROVE    SUNNY     87  62  43 CALM      30.07F
FT INDIANTOWN  SUNNY     86  56  35 NW7       30.06F
CAPITAL CITY   SUNNY     87  50  27 N7        30.06F
HARRISBURG     MOSUNNY   85  53  33 N8        30.05F
YORK           SUNNY     85  53  33 N9        30.06F
$$

PAZ038>040-043-044-047-048-054-055-060>062-067>071-232100-
EASTERN PENNSYLVANIA

CITY           SKY/WX    TMP DP  RH WIND       PRES   REMARKS
SCRANTON       SUNNY     87  58  37 NW7       30.08F
MOUNT POCONO   SUNNY     82  57  42 NE12      30.11F
ALLENTOWN      SUNNY     88  56  33 N7        30.03F
QUAKERTOWN*    CLEAR     86  57  37 N6        30.05S
READING        SUNNY     87  56  34 N6        30.03F
LANCASTER      SUNNY     87  56  34 N9        30.05F
COATESVILLE    CLEAR     84  55  37 N8        30.07F
POTTSTOWN      SUNNY     85  55  35 N5        30.05F
BLUE BELL      SUNNY     84  52  32 N6        30.04F
DOYLESTOWN     SUNNY     88  54  31 N9        30.03S
WILLOW GROVE   NOT AVBL
NORTH PHILA    SUNNY     89  59  36 N9        30.02F
PHILADELPHIA   MOSUNNY   88  59  37 N9        30.01F
$$



USA.gov is the U.S. government's official web portal to all federal, state and local government web resources and services.